TimeEDT,TemperatureF,Dew PointF,Humidity,Sea Level PressureIn,VisibilityMPH,Wind Direction,Wind SpeedMPH,Gust SpeedMPH,PrecipitationIn,Events,Conditions,WindDirDegrees,DateUTC
12:54 AM,55.9,54.0,93,29.60,-9999.0,North,-9999.0,-,0.09,,Unknown,0,2013-11-01 04:54:00
1:54 AM,57.0,54.0,89,29.55,-9999.0,North,-9999.0,-,0.06,,Unknown,0,2013-11-01 05:54:00
2:54 AM,57.9,54.0,87,29.50,-9999.0,North,-9999.0,-,0.03,,Unknown,0,2013-11-01 06:54:00
3:54 AM,57.0,54.0,89,29.47,-9999.0,North,-9999.0,-,0.03,,Unknown,0,2013-11-01 07:54:00
4:54 AM,57.0,54.0,89,29.43,-9999.0,North,-9999.0,-,0.10,,Unknown,0,2013-11-01 08:54:00
5:54 AM,57.9,54.0,87,29.41,-9999.0,North,-9999.0,-,0.06,,Unknown,0,2013-11-01 09:54:00
6:54 AM,59.0,55.0,87,29.38,-9999.0,North,-9999.0,-,0.06,,Unknown,0,2013-11-01 10:54:00
7:54 AM,59.0,55.9,90,29.35,-9999.0,North,-9999.0,-,0.03,,Unknown,0,2013-11-01 11:54:00
8:54 AM,61.0,57.0,87,29.33,-9999.0,North,-9999.0,-,0.02,,Unknown,0,2013-11-01 12:54:00
9:54 AM,62.1,57.9,86,29.31,-9999.0,North,-9999.0,-,N/A,,Unknown,0,2013-11-01 13:54:00
10:54 AM,62.1,59.0,90,29.30,-9999.0,North,-9999.0,-,0.03,,Unknown,0,2013-11-01 14:54:00
11:54 AM,62.1,55.9,80,29.28,-9999.0,North,-9999.0,-,0.08,,Unknown,0,2013-11-01 15:54:00
12:54 PM,61.0,54.0,78,29.26,-9999.0,North,-9999.0,-,0.01,,Unknown,0,2013-11-01 16:54:00
1:54 PM,63.0,53.1,70,29.25,-9999.0,North,-9999.0,-,N/A,,Unknown,0,2013-11-01 17:54:00
2:54 PM,64.9,51.1,61,29.24,-9999.0,North,-9999.0,-,N/A,,Unknown,0,2013-11-01 18:54:00
3:54 PM,66.9,45.0,45,29.28,-9999.0,North,-9999.0,-,N/A,,Unknown,0,2013-11-01 19:54:00
4:54 PM,66.0,44.1,45,29.31,-9999.0,North,-9999.0,-,N/A,,Unknown,0,2013-11-01 20:54:00
5:54 PM,64.0,39.9,41,29.34,-9999.0,North,-9999.0,-,N/A,,Unknown,0,2013-11-01 21:54:00
6:54 PM,63.0,37.9,40,29.40,-9999.0,North,-9999.0,-,N/A,,Unknown,0,2013-11-01 22:54:00
7:54 PM,59.0,37.9,46,29.45,-9999.0,North,-9999.0,-,N/A,,Unknown,0,2013-11-01 23:54:00
8:54 PM,57.9,37.9,47,29.51,-9999.0,North,-9999.0,-,N/A,,Unknown,0,2013-11-02 00:54:00
9:54 PM,55.9,37.9,51,29.54,-9999.0,North,-9999.0,-,N/A,,Unknown,0,2013-11-02 01:54:00
10:54 PM,52.0,39.0,61,29.57,-9999.0,North,-9999.0,-,N/A,,Unknown,0,2013-11-02 02:54:00
11:54 PM,52.0,39.0,61,29.59,-9999.0,North,-9999.0,-,N/A,,Unknown,0,2013-11-02 03:54:00